Погода в Буяге

Погода в Буяге : погода сейчас, прогноз погоды и архив. Всё, что Вы хотите узнать о погоде в Буяге!

Поиск расширенной информации на нашем сайте:

Полезная информация: Содержательный информационный сайт геологии Земли http://www.geologam.ru/

Другие новости

Новости СМИ2

Главная страница сайта

Новости сайта

02.10.2013

Напоминаем, что на нашем новом сайте вы можете получить высокодетализированные прогнозы погоды по пунктам России, СНГ и мира (включающие важные для авиации метеовеличины, такие как направление и скорость ветра, видимость, явления погоды, количество и форма облачности, нижняя и верхняя граница облачности), а также ознакомиться с разнообразными материалами по авиационной метеорологии и подборкой полезных ссылок на эту тему.

Сайт Метеоцентр.Азия посвящён разработке технологий оптимизации авиаметеорологического обслуживания, включая проектирование и перспективное создание нескольких автоматизированных авиаметеорологических систем:
- система выпуска высокодетальных прогностических карт явлений погоды для нижнего воздушного пространства по России и ближнему зарубежью;
- система верификации прогнозов TAF (выпускаемых синоптиками официальных АМСГ РФ и ближнего зарубежья) и AUTOTAF (выпускаемых сайтом Метеоцентр.Азия) - выявление ошибок, онлайн-сопоставление с фактической погодой METAR, автоматическое внесение коррективов в прогнозы при резком отклонении фактической погоды от прогноза, подсчёт оправдываемости прогнозов по элементам и в целом;
- система обработки, анализа и отображения авиаметеорологической информации для применения провайдерами метеорологической информации.

Рекомендуем: Вшэ в праге высшая школа экономики прага.

Погода в Буяге - сегодня

Время (UTC), дата Ветер
(°,м/с) 
Видим.   Явления Облачность Т
(°С)
Тd
(°С)
f(%) Тe
(°С)
Pmin
(гПа)
dP
(гПа)
Po
(мм)
O2
(г/м3)
Тmin Tmax R s Состояние
почвы
18 22.02.17 тихо ()   20000 м    ясно 
-36.8 -38.5 84 -37  1020.9  -0.6  736  345           
21 22.02.17 тихо ()   20000 м    ясно 
-38.4 -40.2 83 -38  1020.7  -0.3  735  347           
00 23.02.17 тихо ()   20000 м    10/0 средняя, верхняя 
[Ac trans|Ci fib]
-40.2 -41.6 86 -40  1020.6  -0.5  735  349  -40.2      42  равномерный
сухой снег
100% 
03 23.02.17 230 (ЮЗ) 20000 м    10/0 верхняя 
[Ci fib]
-29.5 -32 79 -30  1018  -0.9  734  334           
06 23.02.17 тихо ()   20000 м    10/0 верхняя 
[Ci fib]
-22.4 -25.6 75 -22  1015.5  -1.1  733  324           
09 23.02.17 тихо ()   20000 м    8/0 верхняя 
[Ci fib]
-27.7 -29.5 84 -28  1016.7  0.4  734  331           
12 23.02.17 тихо ()   20000 м    ясно 
-36.4 -38.2 84 -36  1019.8  1.5  735  344    -22       
15 23.02.17 тихо ()   20000 м    ясно 
-42.2 -43.8 85 -42  1022  1.2  736  353           
18 23.02.17 тихо ()   20000 м    ясно 
-44.3 -45.9 84 -44  1023.3  0.8  736  356           
21 23.02.17 тихо ()   20000 м    ясно 
-44.7 -44.6 100 -45  1023.7  0.2  737  357           
00 24.02.17 тихо ()   20000 м    6/0 средняя, верхняя 
[As trans|Cc]
-44 -46.4 77 -44  1023.6  0.1  737  356  -45.6      42  равномерный
сухой снег
100% 
03 24.02.17 тихо ()   20000 м  в посл. час снег  10/0 средняя 
[As op]
-34.6 -36.8 80 -35  1020.7  -1.2  736  341           
06 24.02.17 320 (СЗ) 20000 м  {снег}  10/0 средняя, верхняя 
[Ac trans|Cc]
-21.5 -24.8 75 -26  1016.8  -1.7  734  323           
09 24.02.17 тихо ()   20000 м    10/0 средняя, верхняя 
[As trans|Cs]
-20.8 -24.1 75 -21  1016.3  -0.5  734  322           
12 24.02.17 тихо ()   20000 м    4/0 верхняя 
[Ci fib]
-30.9 -32.6 85 -31  1018.9  1.1  735  336    -20.2  0.3     
15 24.02.17 тихо ()   20000 м    ясно 
-34.2 -35.9 84 -34  1020.2  0.8  735  341           
18 24.02.17 тихо ()   20000 м    ясно 
-35.8 -37.5 84 -36  1021.1  0.5  736  343           
21 24.02.17 тихо ()   20000 м    ясно 
-40.4 -42.1 84 -40  1022.8  0.9  737  350           
00 25.02.17 тихо ()   20000 м    1/0 верхняя 
[Ci fib]
-41.3 -43.2 82 -41  1023.5  0.5  737  352  -42      42  равномерный
сухой снег
100% 
03 25.02.17 тихо ()   20000 м    1/0 верхняя 
[Ci fib]
-27.5 -31.4 69 -28  1019.6  -1.6  736  331           
06 25.02.17 тихо ()   20000 м    6/0 верхняя 
[Cs]
-20.3 -26.1 60 -20  1016.2  -2.1  734  321           
09 25.02.17 тихо ()   20000 м    ясно 
-22 -26.9 64 -22  1015.6  -0.8  734  323           
12 25.02.17 тихо ()   20000 м    ясно 
-31 -34.1 74 -31  1016.5  -0.5  733  335    -20       
15 25.02.17 тихо ()   20000 м  слаб. снег  10/0 верхняя 
[Cs]
-33.1 -35.4 80 -33  1015.6  -1.3  732  338           
18 25.02.17 тихо ()   20000 м  {снег}  10/0 верхняя 
[Cs]
-36 -38.4 79 -36  1015.4  -0.7  732  342           
Время (UTC), дата Ветер
(°,м/с) 
Видим.   Явления Облачность Т
(°С)
Тd
(°С)
f(%) Тe
(°С)
Pmin
(гПа)
dP
(гПа)
Po
(мм)
O2
(г/м3)
Тmin Tmax R s Состояние
почвы

Для получения пояснительной информации подведите курсор к названию столбца.

ПОГОДА в Буяге - архив

Всё, что Вы хотите узнать о погоде в Буяге - удобно и подробно!

Выберите нужную дату (начиная с 1 января 2015* года) и нажмите кнопку "Найти".
Будут отображены архивные сводки погоды по пункту Буяга, начиная с указанной даты.


Отображать данные в формате CSV (для использования в таблицах Excel)


Внимание! Наш архив погоды предназначен исключительно для личного некоммерческого использования в познавательных целях. Если Вам необходимы официальные справки о состоянии погоды (для производственных, юридических, коммерческих и т.п. целей), обращайтесь в органы Росгидромета.

*Примечание: данная дата относится к архиву по метеостанциям СССР (Россия, СНГ, Балтия).
Архив по метеостанциям Зарубежной Европы и Азии (кроме Китая) хранится 10 дней, по другим регионам земного шара (Китай, Африка, Америка, Австралия, Океания) - 1 день.

Буяга - район местоположения метеостанции


Название, широта, долгота, высота метеостанции:
Буяга 59.6°ш. 127.2°д. 278 м над ур. моря [Российская Федерация]

Дополнительная информация

В oтличие oт бoльшинства пoгoдных сайтoв мы публикуем пoдрoбную метеoинфoрмацию в детальнoм прoфессиoнальнoм фoрмате.

Характеристики температуры и влажнoсти вoздуха измеряются на высoте 2 м в тени вдали oт зданий и деревьев.
Скoрoсть ветра измеряется на высoте 10 м (на урoвне рoста челoвека скoрoсть ветра ниже в 1.5-2 раза). Если метеoстанция нахoдится в гoрoде или в лесу, тo скoрoсть ветра занижена на 2-4 м/с пo сравнению с oткрытым местoм. Скoрoсть ветра над акватoриями крупных рек и oзёр, а также на вершинах хoлмoв на 2-5 м/с выше, чем в oбычных услoвиях.
Атмoсфернoе давление в разных тoчках местнoсти мoжет значительнo oтличаться oт давления на метеoстанции, в зависимoсти oт услoвий рельефа (при пoдъёме на 10 м давление пoнижается примернo на 1 мм рт.ст.).